Regional Weather Roundup
Issued by NWS New Orleans/Baton Rouge, LA

Home | Current Version | Previous Version | Text Only | Print | Product List | Glossary On
Versions: 1 2 3 4 5 6 7 8 9 10 11 12 13 14 15 16 17 18 19 20 21 22 23 24 25 26 27 28 29 30 31 32 33 34 35 36 37 38 39 40 41 42 43 44 45 46 47 48 49 50
234
ASUS44 KLIX 282210
RWRLIX
NEW ORLEANS REGIONAL WEATHER ROUNDUP
NATIONAL WEATHER SERVICE NEW ORLEANS LA
400 PM CST SAT FEB 28 2015

NOTE: "FAIR" INDICATES FEW OR NO CLOUDS BELOW 12,000 FEET WITH NO
      SIGNIFICANT WEATHER AND/OR OBSTRUCTIONS TO VISIBILITY.
      SKY/WX - SKY CONDITION AND SIGNIFICANT WEATHER.
      TMP - AIR TEMPERATURE.     DP    - DEWPOINT TEMPERATURE.
      RH  - RELATIVE HUMIDITY.   PRES  - PRESSURE.
      HI  - HEAT INDEX.          WCI   - WIND CHILL INDEX.

*  THESE STATIONS ARE NOT NWS OR FAA STATIONS AND ARE NOT UNDER
   NWS QUALITY CONTROL.

LAZ038-040-048-061>063-065>067-069-282300-
SOUTHEAST LOUISIANA

CITY           SKY/WX    TMP DP  RH WIND       PRES   REMARKS
N.O. AUDUBON     N/A     61  50  66 MISG        N/A
N.O. INTL ARPT SUNNY     60  45  57 E10       30.30S
N.O. LAKEFRONT SUNNY     60  46  59 E14       30.32S
SLIDELL        SUNNY     64  46  52 SE10      30.31R
BATON ROUGE    MOSUNNY   66  41  40 SE10      30.29R
BOOTHVILLE     CLOUDY    56  52  86 NE12      30.30F
BELLE CHASSE   MOSUNNY   62  47  57 E10       30.30S
BOGALUSA*        N/A     71  31  23 SE7       30.31S
GALLIANO*      CLEAR     62  50  65 NE9       30.30S
NEW ROADS*     MOCLDY    66  37  35 SE7       30.28S
GONZALES*        N/A     65  43  45 E7        30.28F
HAMMOND*       SUNNY     66  41  39 S8        30.31S
HOUMA*         SUNNY     64  52  63 E13       30.28S
PORT FOURCHON* MOCLDY    59  52  77 NE18G26   30.30F

$$

MSZ070-080>082-282300-
SOUTHERN MISSISSIPPI

CITY           SKY/WX    TMP DP  RH WIND       PRES   REMARKS
MCCOMB         MOSUNNY   66  33  29 SE9       30.30S
GULFPORT       MOSUNNY   59  46  62 SE16      30.32S
BILOXI         SUNNY     60  47  61 SE12      30.32S
PASCAGOULA     SUNNY     60  48  64 SE13      30.32F
STENNIS ARPT*  SUNNY     61  45  55 SE9       30.32S

$$

COASTAL OBSERVATIONS
LAKE AND NEARSHORE STATIONS

STATION/POSITION TIME  TEMP    WIND        PRES    WAVE
                       AIR SEA DIR/SP/G            HT/PER
                 (UTC) (F)     (DEG/KT/KT) (MB)    (FT/S)
PASCAGOULA       2200   58     120/  6/ 14 1026.4
WAVELAND YACHT   2200   56 50  130/ 10/ 13 1026.4
GRAND ISLE       2200   57 54   70/ 16/ 23 1025.7
SOUTHWEST PASS   2200           50/ 16/ 18   N/A
NEW CANAL        2200   58      80/  8/ 13 1026.7
SHELL BEACH      2200   55 53   70/ 12/ 15 1026.2

OFFSHORE STATIONS

STATION/POSITION TIME  TEMP    WIND        PRES    WAVE
                       AIR SEA DIR/SP/G            HT/PER
                 (UTC) (F)     (DEG/KT/KT) (MB)    (FT/S)
64 S DAUPHIN ISL 2118   62 70   80/ 16/ 19 1026.1    5/ 7

$$




USA.gov is the U.S. government's official web portal to all federal, state and local government web resources and services.